Вернуться в каталог

KUIPER-00106

АктивенСвязьLEO
NORAD 65144·PAYLOAD·🇺🇸 United States

Запущен Aug 11, 2025 с Cape Canaveral Space Force Station

Loading…

Ближайшие Пролёты (ближайшие 24 часа)

TLE

СвежийSource: CelesTrak SupGP

Эпоха: Sep 14, 2026, 20:41 UTC

1 65144C 25171N   26257.86190972  .00004209  00000+0  55119-3 0  2575
2 65144  51.9020  27.9056 0000619 101.8282 222.3828 14.79913783    16

Отслеживайте KUIPER-00106 в реальном времени с AllMySat

Download on the App Store